Date String (YYYY-MM-DD hh:mm:ss) UTC,Instrument flags,absolute air pressure of the measurement (hPa),sample flow rate (lpm),inlet stack bypass flow (lpm),air temperature of the measurement (°C),ambient temperature measured by the external sensor (°C),aerosol sample conditioner tube jacket temperature (°C),OPC LED temperature (°C),internal box temperature (°C),relative humidity of the measurement (%),span deviation,mass concentration of particles derived from Lorenz-Mie calculation of OPC scattering (μg/m³),mass concentration of particles derived from Lorenz-Mie calculation of OPC scattering (μg/m³),mass concentration of particles derived from Lorenz-Mie calculation of OPC scattering (μg/m³)
DateTimeUTC,F1_M11,P_M11,Q1_M11,Q2_M11,T1_M11,T2_M11,T3_M11,T4_M11,T5_M11,U1_M11,ZSPAN_M11,X0_M11,X2_M11,X1_M11
2023-11-07 04:00:00,SystemResetWarning,0823.6,5.00,000.00,027.7,026.7,000.0,036.1,029.2,9.1,0000.0,0008.56,0003.58,0003.10
2023-11-07 04:01:00,SystemResetWarning,0823.7,5.00,000.00,027.7,026.7,000.0,036.1,029.2,9.6,0000.0,0008.38,0003.53,0003.06
2023-11-07 04:02:00,SystemResetWarning,0823.8,4.99,000.00,027.7,026.7,000.0,036.1,029.2,9.3,0000.0,0008.18,0003.52,0003.06
2023-11-07 04:03:00,SystemResetWarning,0823.7,5.00,000.00,027.8,026.8,000.0,036.1,029.2,9.2,0000.0,0007.79,0003.51,0003.05
2023-11-07 04:04:00,SystemResetWarning,0823.6,5.00,000.00,027.8,026.8,000.0,036.1,029.2,9.0,0000.0,0008.04,0003.49,0003.04
2023-11-07 04:05:00,SystemResetWarning,0823.6,5.00,000.00,027.8,026.8,000.0,036.1,029.3,9.0,0000.0,0008.42,0003.50,0003.03
2023-11-07 04:06:00,SystemResetWarning,0823.5,5.01,000.00,027.8,026.9,000.0,036.1,029.3,8.9,0000.0,0008.37,0003.52,0003.04
2023-11-07 04:07:00,SystemResetWarning,0823.6,5.01,000.00,027.8,026.9,000.0,036.1,029.4,8.9,0000.0,0008.15,0003.55,0003.06
2023-11-07 04:08:00,SystemResetWarning,0823.6,5.00,000.00,027.8,026.9,000.0,036.1,029.3,9.0,0000.0,0008.15,0003.54,0003.05
2023-11-07 04:09:00,SystemResetWarning,0823.5,4.99,000.00,027.9,026.9,000.0,036.1,029.3,9.0,0000.0,0008.48,0003.55,0003.04
2023-11-07 04:10:00,SystemResetWarning,0823.5,5.00,000.00,027.9,026.9,000.0,036.1,029.4,8.9,0000.0,0009.05,0003.56,0003.01
2023-11-07 04:11:00,SystemResetWarning,0823.6,5.00,000.00,027.9,026.9,000.0,036.2,029.4,8.9,0000.0,0010.18,0003.58,0003.00
2023-11-07 04:12:00,SystemResetWarning,0823.6,4.99,000.00,027.9,027.0,000.0,036.2,029.4,8.8,0000.0,0010.36,0003.63,0003.02
2023-11-07 04:13:00,SystemResetWarning,0823.6,5.00,000.00,027.9,027.0,000.0,036.2,029.4,8.8,0000.0,0010.13,0003.65,0003.03
2023-11-07 04:14:00,SystemResetWarning,0823.6,5.00,000.00,027.9,027.1,000.0,036.2,029.4,8.8,0000.0,0010.44,0003.65,0003.03
2023-11-07 04:15:00,SystemResetWarning,0823.6,5.00,000.00,027.9,027.1,000.0,036.2,029.4,9.0,0000.0,0010.37,0003.67,0003.05
2023-11-07 04:16:00,SystemResetWarning,0823.5,5.00,000.00,027.9,027.0,000.0,036.2,029.4,9.0,0000.0,0010.23,0003.70,0003.07
2023-11-07 04:17:00,SystemResetWarning,0823.5,5.00,000.00,028.0,027.1,000.0,036.2,029.4,9.1,0000.0,0010.61,0003.69,0003.06
2023-11-07 04:18:00,SystemResetWarning,0823.5,5.00,000.00,028.0,027.1,000.0,036.2,029.5,9.0,0000.0,0010.40,0003.64,0003.03
2023-11-07 04:19:00,SystemResetWarning,0823.5,5.00,000.00,028.0,027.1,000.0,036.3,029.5,8.9,0000.0,0011.01,0003.61,0003.02
2023-11-07 04:20:00,SystemResetWarning,0823.5,5.00,000.00,028.0,027.1,000.0,036.3,029.5,9.0,0000.0,0010.75,0003.59,0003.01
2023-11-07 04:21:00,SystemResetWarning,0823.6,5.00,000.00,028.0,027.1,000.0,036.3,029.5,9.0,0000.0,0010.20,0003.56,0003.03
2023-11-07 04:22:00,SystemResetWarning,0823.6,5.00,000.00,028.0,027.1,000.0,036.3,029.5,8.9,0000.0,0008.82,0003.53,0003.02
2023-11-07 04:23:00,SystemResetWarning,0823.6,5.00,000.00,028.0,027.1,000.0,036.3,029.5,8.8,0000.0,0008.98,0003.49,0003.02
2023-11-07 04:24:00,SystemResetWarning,0823.6,4.99,000.00,028.0,027.1,000.0,036.3,029.5,8.8,0000.0,0009.09,0003.48,0003.02
2023-11-07 04:25:00,SystemResetWarning,0823.6,5.01,000.00,028.0,027.1,000.0,036.3,029.5,9.0,0000.0,0008.85,0003.51,0003.05
2023-11-07 04:26:00,SystemResetWarning,0823.6,5.01,000.00,028.1,027.1,000.0,036.3,029.5,9.0,0000.0,0008.80,0003.55,0003.05
2023-11-07 04:27:00,SystemResetWarning,0823.6,5.01,000.00,028.1,027.1,000.0,036.4,029.5,8.9,0000.0,0009.69,0003.54,0003.08
2023-11-07 04:28:00,SystemResetWarning,0823.6,5.00,000.00,028.1,027.2,000.0,036.4,029.6,8.9,0000.0,0009.27,0003.56,0003.09
2023-11-07 04:29:00,SystemResetWarning,0823.5,5.00,000.00,028.1,027.2,000.0,036.4,029.6,8.8,0000.0,0009.64,0003.56,0003.08
2023-11-07 04:30:00,SystemResetWarning,0823.5,5.00,000.00,028.1,027.2,000.0,036.4,029.6,8.8,0000.0,0008.93,0003.55,0003.09
2023-11-07 04:31:00,SystemResetWarning,0823.5,5.00,000.00,028.1,027.3,000.0,036.4,029.6,8.9,0000.0,0008.96,0003.53,0003.10
2023-11-07 04:32:00,SystemResetWarning,0823.5,4.99,000.00,028.1,027.3,000.0,036.4,029.6,8.9,0000.0,0008.99,0003.52,0003.10
2023-11-07 04:33:00,SystemResetWarning,0823.5,5.00,000.00,028.2,027.3,000.0,036.4,029.6,8.9,0000.0,0010.01,0003.58,0003.12
2023-11-07 04:34:00,SystemResetWarning,0823.5,5.01,000.00,028.2,027.3,000.0,036.4,029.6,9.0,0000.0,0009.94,0003.59,0003.14
2023-11-07 04:35:00,SystemResetWarning,0823.6,5.00,000.00,028.2,027.3,000.0,036.5,029.7,9.0,0000.0,0010.80,0003.61,0003.15
2023-11-07 04:36:00,SystemResetWarning,0823.7,5.00,000.00,028.2,027.4,000.0,036.5,029.6,9.0,0000.0,0011.90,0003.64,0003.16
2023-11-07 04:37:00,SystemResetWarning,0823.6,4.99,000.00,028.2,027.4,000.0,036.5,029.6,9.0,0000.0,0012.23,0003.62,0003.18
2023-11-07 04:38:00,SystemResetWarning,0823.6,5.00,000.00,028.2,027.4,000.0,036.5,029.7,9.0,0000.0,0011.37,0003.64,0003.19
2023-11-07 04:39:00,SystemResetWarning,0823.6,5.00,000.00,028.2,027.4,000.0,036.5,029.7,9.0,0000.0,0012.15,0003.71,0003.21
2023-11-07 04:40:00,SystemResetWarning,0823.6,5.00,000.00,028.2,027.4,000.0,036.5,029.7,9.0,0000.0,0012.18,0003.79,0003.25
2023-11-07 04:41:00,SystemResetWarning,0823.6,4.99,000.00,028.2,027.4,000.0,036.5,029.7,9.0,0000.0,0012.46,0003.85,0003.28
2023-11-07 04:42:00,SystemResetWarning,0823.5,5.00,000.00,028.3,027.4,000.0,036.5,029.7,9.0,0000.0,0012.75,0003.95,0003.31
2023-11-07 04:43:00,SystemResetWarning,0823.5,5.00,000.00,028.3,027.4,000.0,036.6,029.7,9.0,0000.0,0012.75,0004.02,0003.33
2023-11-07 04:44:00,SystemResetWarning,0823.5,5.00,000.00,028.3,027.4,000.0,036.6,029.7,8.7,0000.0,0011.82,0004.01,0003.34
2023-11-07 04:45:00,SystemResetWarning,0823.5,5.00,000.00,028.3,027.4,000.0,036.6,029.7,8.5,0000.0,0011.67,0004.07,0003.37
2023-11-07 04:46:00,SystemResetWarning,0823.4,5.00,000.00,028.3,027.4,000.0,036.6,029.7,8.4,0000.0,0010.84,0004.06,0003.36
2023-11-07 04:47:00,SystemResetWarning,0823.5,5.00,000.00,028.3,027.4,000.0,036.6,029.7,8.2,0000.0,0009.92,0004.03,0003.33
2023-11-07 04:48:00,SystemResetWarning,0823.5,5.00,000.00,028.3,027.4,000.0,036.6,029.8,8.1,0000.0,0009.47,0004.00,0003.27
2023-11-07 04:49:00,SystemResetWarning,0823.4,5.00,000.00,028.3,027.4,000.0,036.6,029.7,8.8,0000.0,0009.28,0003.91,0003.18
2023-11-07 04:50:00,SystemResetWarning,0823.5,5.01,000.00,028.3,027.5,000.0,036.6,029.8,8.9,0000.0,0008.21,0003.79,0003.12
2023-11-07 04:51:00,SystemResetWarning,0823.5,5.00,000.00,028.3,027.4,000.0,036.6,029.8,8.9,0000.0,0008.38,0003.74,0003.07
2023-11-07 04:52:00,SystemResetWarning,0823.4,5.00,000.00,028.3,027.5,000.0,036.6,029.8,9.1,0000.0,0008.64,0003.75,0003.06
2023-11-07 04:53:00,SystemResetWarning,0823.4,5.00,000.00,028.3,027.5,000.0,036.7,029.8,9.1,0000.0,0008.61,0003.73,0003.07
2023-11-07 04:54:00,SystemResetWarning,0823.5,4.99,000.00,028.3,027.4,000.0,036.7,029.7,9.1,0000.0,0009.49,0003.72,0003.09
2023-11-07 04:55:00,SystemResetWarning,0823.5,4.99,000.00,028.3,027.4,000.0,036.7,029.7,9.1,0000.0,0009.59,0003.73,0003.10
2023-11-07 04:56:00,SystemResetWarning,0823.5,5.00,000.00,028.3,027.4,000.0,036.7,029.8,9.1,0000.0,0009.67,0003.70,0003.09
2023-11-07 04:57:00,SystemResetWarning,0823.4,5.00,000.00,028.3,027.4,000.0,036.7,029.8,8.9,0000.0,0009.82,0003.71,0003.10
2023-11-07 04:58:00,SystemResetWarning,0823.4,5.00,000.00,028.3,027.4,000.0,036.7,029.7,8.4,0000.0,0010.32,0003.77,0003.16
2023-11-07 04:59:00,SystemResetWarning,0823.4,5.01,000.00,028.3,027.4,000.0,036.7,029.7,8.4,0000.0,0010.52,0003.79,0003.22
